Location: Donald C. Martin Observatory
(38.3885°N, 82.3916°W)
Time: 02:25:18
(UTC-04:00)

Cosmos 1484 Rocket - Visible Passes

Search period start: 22 September 2017 00:00
Search period end: 02 October 2017 00:00
Orbit: 507 x 562 km, 97.3° (Epoch: 21 September)

Date Brightness Start Highest point End Pass type
(mag) Time Alt. Az. Time Alt. Az. Time Alt. Az.
22 Sep 6.7 06:43:24 10° ENE 06:44:21 11° E 06:45:19 10° ESE visible
24 Sep 6.3 20:15:02 10° WSW 20:16:47 13° W 20:18:30 10° WNW visible
25 Sep 6.1 20:05:14 10° SW 20:07:43 16° W 20:10:11 10° NW visible
26 Sep 5.9 19:55:43 10° SW 19:58:40 20° W 20:01:36 10° NW visible
27 Sep 5.5 19:46:21 10° SSW 19:49:38 26° W 19:52:54 10° NW visible
28 Sep 4.9 19:37:04 10° SSW 19:40:36 33° W 19:44:07 10° NNW visible
01 Oct 6.1 06:55:30 10° NE 06:57:56 16° E 07:00:21 10° SE visible
